This is the latest recevied weather packets stored in our database for station/object N1UNH. If no packets are shown the sender has not sent any weather packets the latest 10 day(s).
| Time | Temp. | Humidity | Pressure | Rain* | Wind** | Luminosity | Snow |
|---|---|---|---|---|---|---|---|
| 1777989042 | 19.44° C | 49% | 1013.6 hPa | 0 mm | - | 92 W/m² | - |
| 1777988738 | 19.44° C | 49% | 1014 hPa | 0 mm | - | 98 W/m² | - |
| 1777988436 | 19.44° C | 50% | 1014.1 hPa | 0 mm | - | 86 W/m² | - |
| 1777988133 | 18.89° C | 51% | 1013.9 hPa | 0 mm | - | 101 W/m² | - |
| 1777987829 | 18.33° C | 52% | 1013.9 hPa | 0 mm | - | 97 W/m² | - |
| 1777987526 | 17.78° C | 56% | 1014 hPa | 0 mm | - | 83 W/m² | - |
| 1777987223 | 17.22° C | 57% | 1014 hPa | 0 mm | - | 88 W/m² | - |
| 1777986919 | 17.22° C | 61% | 1014 hPa | 0 mm | - | 87 W/m² | - |
| 1777986618 | 17.22° C | 60% | 1013.8 hPa | 0 mm | - | 82 W/m² | - |
| 1777986315 | 17.22° C | 60% | 1013.8 hPa | 0 mm | - | 81 W/m² | - |
| 1777986014 | 17.22° C | 59% | 1013.6 hPa | 0 mm | - | 134 W/m² | - |
| 1777985710 | 17.22° C | 60% | 1013.6 hPa | 0 mm | - | 125 W/m² | - |
| 1777985407 | 17.22° C | 57% | 1014 hPa | 0 mm | - | 131 W/m² | - |
| 1777985103 | 16.67° C | 59% | 1013.9 hPa | 0 mm | - | 128 W/m² | - |
| 1777984799 | 16.67° C | 61% | 1013.8 hPa | 0 mm | - | 151 W/m² | - |
| 1777984496 | 16.11° C | 59% | 1014 hPa | 0 mm | - | 123 W/m² | - |
| 1777984192 | 15.56° C | 63% | 1013.8 hPa | 0 mm | - | 87 W/m² | - |
| 1777983889 | 15.56° C | 61% | 1014.2 hPa | 0 mm | - | 83 W/m² | - |
| 1777983586 | 15° C | 60% | 1014.3 hPa | 0 mm | - | 65 W/m² | - |
| 1777983283 | 13.89° C | 62% | 1014.3 hPa | 0 mm | - | 53 W/m² | - |
| 1777982979 | 13.33° C | 66% | 1014.2 hPa | 0 mm | - | 47 W/m² | - |
| 1777982676 | 12.78° C | 71% | 1014.1 hPa | 0 mm | - | 44 W/m² | - |
| 1777982375 | 12.22° C | 72% | 1014 hPa | 0 mm | - | 45 W/m² | - |
| 1777982071 | 11.67° C | 74% | 1014.1 hPa | 0 mm | - | 40 W/m² | - |
| 1777981769 | 11.11° C | 77% | 1013.9 hPa | 0 mm | - | 44 W/m² | - |
* Rain latest hour (hover to see other rain measurements)
** Current wind speed in m/s (hover to see current wind gust speed)